Flag for U.S.A. Weather past 2 weeks in Visalia, California, U.S.A.

Now
82 °F

Sunny.


Feels Like: 82 °F
Forecast: 66 / 94 °F
Wind: 10 mph from North

Location: Hanford Municipal Airport

Current Time: Aug 29, 2015 at 10:57:18 AM

Latest Report: Aug 29, 2015 at 9:53 AM


Visibility: 10 mi

Pressure: 29.96 "Hg

Humidity: 43%

Dew point: 57 °F

Location of VisaliaLocation

Historic Weather in Visalia — Graph

°F

Visalia temperature yesterday

Maximum temperature yesterday: 102 °F (at 3:53 PM)
Minimum temperature yesterday: 65 °F (at 6:53 AM)
Average temperature yesterday: 86 °F

Past Weeks' High & Low Weather Summary

 TemperatureHumidityPressure
High107 °F (Aug 17, 3:53 PM)79% (Aug 16, 6:53 AM)30.04 "Hg (Aug 16, 6:53 AM)
Low65 °F (Aug 20, 6:53 AM)11% (Aug 17, 3:53 PM)29.72 "Hg (Aug 17, 5:53 PM)
Average84 °F38%29.87 "Hg
* Reported Aug 14 8:53 AM — Aug 29 8:53 AM, Visalia, Weather by CustomWeather, © 2015

Note: Actual official high and low records may vary slightly from our data, if they occured in-between our weather recording intervals... More about our weather records

Advertising

Visalia weather history for previous 24 hours

 ConditionsComfort  
Time TempWeatherWind HumidityBarometerVisibility
8:53 AM
Sat, Aug 29
78 °FSunny.13 mph48%29.95 "Hg10 mi
7:53 AM74 °FSunny.15 mph56%29.94 "Hg10 mi
6:53 AM70 °FClear.12 mph61%29.92 "Hg10 mi
5:53 AM72 °FClear.8 mph55%29.90 "Hg10 mi
4:53 AM74 °FClear.6 mph50%29.88 "Hg10 mi
3:53 AM75 °FClear.7 mph48%29.88 "Hg10 mi
2:53 AM77 °FClear.6 mph44%29.87 "Hg10 mi
1:53 AM78 °FClear.5 mph40%29.85 "Hg10 mi
12:53 AM82 °FClear.9 mph33%29.85 "Hg10 mi
11:53 PM
Fri, Aug 28
84 °FClear.13 mph27%29.83 "Hg10 mi
10:53 PM87 °FClear.12 mph22%29.82 "Hg10 mi
9:53 PM90 °FClear.12 mph24%29.81 "Hg10 mi
8:53 PM84 °FClear.3 mph48%29.80 "Hg9 mi
7:53 PM88 °FSunny.3 mph46%29.77 "Hg9 mi
6:53 PM97 °FSunny.5 mph30%29.76 "Hg10 mi
5:53 PM100 °FSunny.5 mph25%29.77 "Hg10 mi
4:53 PM102 °FSunny.8 mph20%29.78 "Hg10 mi
3:53 PM102 °FSunny.6 mph20%29.80 "Hg10 mi
2:53 PM101 °FSunny.3 mph18%29.82 "Hg10 mi
1:53 PM100 °FSunny.7 mph18%29.85 "Hg10 mi
12:53 PM97 °FSunny.No wind20%29.87 "Hg10 mi
11:53 AM94 °FSunny.No wind24%29.90 "Hg10 mi
10:53 AM90 °FSunny.9 mph26%29.91 "Hg10 mi
Weather by CustomWeather, © 2015

See weather overviewHow to use our weather pages